| time (UTC) | temp F | wind direction | speed knots | gust knots | rain 1hr in | rain 24hr in | rain mn in | humidity % | barometer mb |
| 20260504200042 | 78 | 251 | 8.7 | 18.2 | 0.00 | 0.00 | 0.00 | 28 | 997.4 |
| 20260504194540 | 77 | 262 | 7.0 | 16.5 | 0.00 | 0.00 | 0.00 | 29 | 997.5 |
| 20260504193041 | 77 | 233 | 7.0 | 20.0 | 0.00 | 0.00 | 0.00 | 27 | 997.6 |
| 20260504191541 | 77 | 233 | 7.0 | 17.4 | 0.00 | 0.00 | 0.00 | 28 | 997.9 |
| 20260504190039 | 77 | 232 | 7.8 | 20.9 | 0.00 | 0.00 | 0.00 | 29 | 997.7 |
| 20260504184537 | 76 | 278 | 6.1 | 19.1 | 0.00 | 0.00 | 0.00 | 29 | 998.0 |
| 20260504183041 | 76 | 216 | 8.7 | 20.0 | 0.00 | 0.00 | 0.00 | 29 | 998.4 |
| 20260504181543 | 75 | 264 | 11.3 | 20.0 | 0.00 | 0.00 | 0.00 | 29 | 998.3 |
| 20260504180039 | 75 | 222 | 7.0 | 21.7 | 0.00 | 0.00 | 0.00 | 29 | 998.4 |
| 20260504174538 | 75 | 257 | 7.8 | 17.4 | 0.00 | 0.00 | 0.00 | 29 | 998.5 |
| 20260504173035 | 74 | 250 | 12.2 | 20.9 | 0.00 | 0.00 | 0.00 | 27 | 998.7 |
| 20260504171535 | 74 | 226 | 7.8 | 18.2 | 0.00 | 0.00 | 0.00 | 28 | 999.0 |
| 20260504081548 | 49 | 218 | 0.9 | 2.6 | 0.00 | 0.00 | 0.00 | 79 | 1003.1 |
| 20260504044535 | 54 | 247 | 1.7 | 1.7 | 0.00 | 0.00 | 0.00 | 66 | 1004.4 |
| 20260504043040 | 54 | 221 | 1.7 | 2.6 | 0.00 | 0.00 | 0.00 | 66 | 1004.3 |
| 20260504041540 | 55 | 221 | 0.9 | 2.6 | 0.00 | 0.00 | 0.00 | 64 | 1004.4 |
| 20260504040041 | 55 | 226 | 1.7 | 2.6 | 0.00 | 0.00 | 0.00 | 63 | 1004.5 |
| 20260504034538 | 55 | 225 | 0.9 | 1.7 | 0.00 | 0.00 | 0.00 | 64 | 1004.6 |
| 20260504033036 | 55 | 219 | 0.9 | 1.7 | 0.00 | 0.00 | 0.00 | 64 | 1004.8 |
| 20260504031535 | 55 | 0 | 0.0 | 0.9 | 0.00 | 0.00 | 0.00 | 65 | 1004.8 |
| 20260504030035 | 55 | 0 | 0.0 | 0.9 | 0.00 | 0.00 | 0.00 | 64 | 1004.9 |
| 20260504024534 | 56 | 219 | 0.0 | 0.9 | 0.00 | 0.00 | 0.00 | 62 | 1004.8 |
| 20260504023040 | 57 | 0 | 0.0 | 0.9 | 0.00 | 0.00 | 0.00 | 59 | 1004.8 |
| 20260504021538 | 58 | 0 | 0.0 | 0.0 | 0.00 | 0.00 | 0.00 | 58 | 1004.8 |
| 20260504020053 | 59 | 0 | 0.0 | 0.9 | 0.00 | 0.00 | 0.00 | 56 | 1004.7 |
| 20260504014553 | 60 | 0 | 0.0 | 0.0 | 0.00 | 0.00 | 0.00 | 53 | 1004.5 |
| 20260504013044 | 62 | 0 | 0.0 | 0.9 | 0.00 | 0.00 | 0.00 | 50 | 1004.7 |
| 20260504011540 | 63 | 0 | 0.0 | 1.7 | 0.00 | 0.00 | 0.00 | 47 | 1004.6 |
| 20260504010044 | 65 | 263 | 1.7 | 7.0 | 0.00 | 0.00 | 0.00 | 45 | 1004.4 |
| 20260504004555 | 65 | 257 | 3.5 | 9.6 | 0.00 | 0.00 | 0.00 | 44 | 1004.4 |
| 20260504003037 | 66 | 242 | 4.3 | 8.7 | 0.00 | 0.00 | 0.00 | 43 | 1004.3 |
| 20260504001550 | 67 | 208 | 4.3 | 8.7 | 0.00 | 0.00 | 0.00 | 43 | 1004.2 |
| 20260504000035 | 67 | 285 | 5.2 | 14.8 | 0.00 | 0.00 | 0.00 | 42 | 1004.2 |
| 20260503234540 | 67 | 292 | 5.2 | 13.9 | 0.00 | 0.00 | 0.00 | 42 | 1004.2 |
| 20260503233041 | 67 | 228 | 7.0 | 13.0 | 0.00 | 0.00 | 0.00 | 41 | 1004.2 |
| 20260503231536 | 67 | 266 | 6.1 | 15.6 | 0.00 | 0.00 | 0.00 | 42 | 1004.3 |
| 20260503230040 | 67 | 241 | 7.0 | 20.0 | 0.00 | 0.00 | 0.00 | 42 | 1004.5 |
| 20260503224536 | 67 | 207 | 6.1 | 14.8 | 0.00 | 0.00 | 0.00 | 42 | 1004.4 |
| 20260503223040 | 67 | 238 | 8.7 | 16.5 | 0.00 | 0.00 | 0.00 | 42 | 1004.6 |
| 20260503221538 | 67 | 256 | 7.8 | 16.5 | 0.00 | 0.00 | 0.00 | 42 | 1004.8 |
| 20260503220045 | 67 | 257 | 6.1 | 17.4 | 0.00 | 0.00 | 0.00 | 43 | 1004.7 |
| 20260503214535 | 66 | 240 | 8.7 | 20.9 | 0.00 | 0.00 | 0.00 | 43 | 1004.9 |
| 20260503213035 | 66 | 246 | 9.6 | 19.1 | 0.00 | 0.00 | 0.00 | 42 | 1005.1 |
| 20260503211541 | 66 | 240 | 11.3 | 20.9 | 0.00 | 0.00 | 0.00 | 42 | 1005.0 |
| 20260503210039 | 65 | 241 | 10.4 | 19.1 | 0.00 | 0.00 | 0.00 | 44 | 1005.2 |
| 20260503204539 | 65 | 229 | 8.7 | 18.2 | 0.00 | 0.00 | 0.00 | 48 | 1005.6 |
| 20260503203052 | 63 | 212 | 10.4 | 20.0 | 0.00 | 0.00 | 0.00 | 50 | 1006.0 |
| 20260503201538 | 64 | 218 | 9.6 | 20.9 | 0.00 | 0.00 | 0.00 | 48 | 1006.2 |